Flag for U.S.A. Weather past 2 weeks in Billings, Montana, U.S.A.

Now
53 °F

Passing clouds.


Feels Like: 52 °F
Forecast: 53 / 71 °F
Wind: 5 mph from Northeast

Location: Billings Logan International Airport

Current Time: May 27, 2015 at 12:15:31 AM

Latest Report: May 26, 2015 at 11:53 PM


Visibility: 10 mi

Pressure: 29.91 "Hg

Humidity: 86%

Dew point: 49 °F

Location of BillingsLocation

Historic Weather in Billings — Graph

°F

Billings temperature yesterday

Maximum temperature yesterday: 72 °F (at 1:53 PM)
Minimum temperature yesterday: 48 °F (at 4:53 AM)
Average temperature yesterday: 59 °F

Past Weeks' High & Low Weather Summary

 TemperatureHumidityPressure
High72 °F (May 26, 1:53 PM)100% (May 16, 3:53 AM)30.44 "Hg (May 16, 3:53 AM)
Low38 °F (May 21, 4:53 AM)29% (May 12, 1:53 AM)29.57 "Hg (May 16, 2:53 AM)
Average52 °F69%29.98 "Hg
* Reported May 11 10:53 PM — May 26 10:53 PM, Billings, Weather by CustomWeather, © 2015

Note: Actual official high and low records may vary slightly from our data, if they occured in-between our weather recording intervals... More about our weather records

Advertising

Billings weather history for previous 24 hours

 ConditionsComfort  
Time TempWeatherWind HumidityBarometerVisibility
10:53 PM
Tue, May 26
57 °FPassing clouds.3 mph74%29.91 "Hg10 mi
9:53 PM56 °FPassing clouds.8 mph84%29.91 "Hg10 mi
8:53 PM58 °FScattered clouds.No wind70%29.91 "Hg10 mi
7:53 PM57 °FBroken clouds.5 mph83%29.92 "Hg10 mi
6:53 PM57 °FPartly sunny.8 mph87%29.93 "Hg10 mi
5:53 PM56 °FThunderstorms. More clouds than sun.9 mph84%29.93 "Hg8 mi
4:53 PM63 °FThunderstorms. Cloudy.17 mph56%29.89 "Hg10 mi
3:53 PM71 °FCloudy.7 mph39%29.85 "Hg10 mi
2:53 PM71 °FBroken clouds.8 mph41%29.84 "Hg10 mi
1:53 PM72 °FBroken clouds.3 mph37%29.85 "Hg10 mi
12:53 PM71 °FBroken clouds.8 mph39%29.86 "Hg10 mi
11:53 AM68 °FBroken clouds.8 mph45%29.87 "Hg10 mi
10:53 AM67 °FScattered clouds.10 mph47%29.88 "Hg10 mi
9:53 AM62 °FScattered clouds.6 mph60%29.89 "Hg10 mi
8:53 AM56 °FScattered clouds.6 mph72%29.90 "Hg10 mi
7:53 AM52 °FScattered clouds.5 mph80%29.89 "Hg10 mi
6:53 AM52 °FScattered clouds.No wind83%29.89 "Hg10 mi
5:53 AM50 °FPartly cloudy.No wind86%29.88 "Hg10 mi
4:53 AM48 °FPassing clouds.3 mph89%29.87 "Hg10 mi
3:53 AM49 °FPassing clouds.3 mph86%29.85 "Hg10 mi
2:53 AM51 °FPassing clouds.6 mph83%29.85 "Hg10 mi
1:53 AM52 °FPassing clouds.6 mph80%29.84 "Hg10 mi
12:53 AM54 °FClear.5 mph72%29.85 "Hg10 mi
Weather by CustomWeather, © 2015

See weather overviewHow to use our weather pages